Location: Unspecified
(0.0000°N, 0.0000°E)
Time: 05:41:14
(UTC+00:00)

Tiros 1 despin weight - Pass Details

Date: 04 October 2020
Orbit: 594 x 641 km, 48.2° (Epoch: 28 October)

Event Time Altitude Azimuth Distance (km) Brightness Sun altitude
Rises 06:55:35 0° 233° (SW) 2,828 ? 16.7°
Reaches altitude 10° 06:58:00 10° 241° (WSW) 1,921 ? 17.3°
Maximum altitude 07:02:05 37° 309° (NW) 917 ? 18.3°
Drops below altitude 10° 07:06:09 10° 17° (NNE) 1,912 ? 19.3°
Sets 07:08:33 0° 26° (NNE) 2,813 ? 19.9°
